Regional Weather Roundup
Issued by NWS Cleveland, OH

Home | Current Version | Previous Version | Text Only | Print | Product List | Glossary On
Versions: 1 2 3 4 5 6 7 8 9 10 11 12 13 14 15 16 17 18 19 20 21 22 23 24 25 26 27 28 29 30 31 32 33 34 35 36 37 38 39 40 41 42 43 44 45 46 47 48 49 50
000
ASUS41 KCLE 301002
RWRCLE
OHIO REGIONAL WEATHER ROUNDUP
NATIONAL WEATHER SERVICE CLEVELAND, OH
600 AM EDT TUE JUN 30 2015

NOTE: "FAIR" INDICATES FEW OR NO CLOUDS BELOW 12,000 FEET WITH NO
SIGNIFICANT WEATHER AND/OR OBSTRUCTIONS TO VISIBILITY.

OHZ001>008-015>018-024>027-034-035-043-044-301100-
   NORTHWEST OHIO

CITY           SKY/WX    TMP DP  RH WIND       PRES   REMARKS
DEFIANCE       CLOUDY    63  60  90 CALM      29.80S FOG
FINDLAY        CLOUDY    63  60  90 SW5       29.80S FOG
TOLEDO EXPRESS CLOUDY    61  60  97 W5        29.79S
TOLEDO EXEC    CLOUDY    63  59  87 W5        29.80S
LIMA           CLOUDY    61  60  97 CALM      29.82R FOG
$$

OHZ009>014-019>023-028>033-038-089-301100-
   NORTHEAST OHIO

CITY           SKY/WX    TMP DP  RH WIND       PRES   REMARKS
CLE-HOPKINS    CLOUDY    63  60  90 SW7       29.81S
CLE-LAKEFRONT  CLOUDY    64  60  87 S6        29.78S
CUY CO. ARPT   NOT AVBL
LORAIN-ELYRIA  CLOUDY    62  61  96 SW6       29.80S FOG
ASHTABULA      CLOUDY    62  60  93 S5        29.81S
AKRON-CANTON   CLOUDY    64  61  90 SW8       29.82R FOG
WOOSTER        MOCLDY    61  60  97 SW5       29.83R FOG
MANSFIELD      CLOUDY    61  60  97 SW5       29.83R
YOUNGSTOWN     CLOUDY    61  60  97 S6        29.81S FOG
$$

OHZ042-051>053-060>062-070>072-077>081-301100-
  SOUTHWEST OHIO

CITY           SKY/WX    TMP DP  RH WIND       PRES   REMARKS
CINC-COVINGTON PTCLDY    65  63  93 S8        29.85R
CINC-LUNKEN    CLEAR     65  64  97 SE3       29.85R
HAMILTON       FOG       61  61 100 CALM      29.84R VSB 3/4
DAYTON         FOG       65  64  97 S5        29.83R VSB 1/4
WRIGHT-PAT AFB CLOUDY    63  63 100 SE1       29.82R FOG
DAYTON GENERAL FOG       63  63 100 S5        29.82S VSB 1/4
WILMINGTON     CLOUDY    64  62  93 SW5       29.84R FOG
$$

OHZ036-037-039>041-045>050-054>059-063>069-073>076-082>088-301100-
  CENTRAL AND SOUTHEAST OHIO

CITY           SKY/WX    TMP DP  RH WIND       PRES   REMARKS
COLUMBUS       FOG       63  63 100 CALM      29.83R VSB 1
OSU AIRPORT    CLOUDY    63  62  97 CALM      29.83R FOG
BOLTON FIELD   NOT AVBL
RICKENBACK AFB NOT AVBL
NEWARK         CLOUDY    65  63  93 SW3       29.83S FOG
MARION         FOG       61  60  97 CALM      29.83R VSB 3/4
LANCASTER      CLOUDY    66  64  93 SW3       29.85R FOG
ZANESVILLE     NOT AVBL
NEW PHILLY     MOCLDY    64  62  93 SW3       29.84R
$$



USA.gov is the U.S. government's official web portal to all federal, state and local government web resources and services.